Wind_Speed
23 22 21 20 19 19 19 19 18 17 15 14 13 10 6 4 2 5 4 6 9 9 10 12 15 16 16 13 14 22 9 8 13 12 14 17 14 14 14 18 17 13 10 9 8
25 25 23 22 21 20 20 20 20 19 17 16 13 11 9 6 3 3 3 7 8 10 11 13 13 14 9 9 10 9 6 10 10 11 18 18 15 14 18 19 17 15 12 12 11
26 27 27 25 24 22 21 20 21 21 20 18 16 14 11 9 6 4 2 7 6 9 11 11 12 16 8 9 8 14 8 7 9 11 14 16 15 21 20 18 17 14 15 14 12
26 27 28 28 28 26 24 23 22 21 21 20 19 17 13 11 5 8 6 5 5 7 9 9 11 12 9 1 7 4 10 9 9 11 14 15 20 18 17 19 16 12 13 13 11
25 26 27 29 30 29 29 27 25 24 23 22 22 20 16 14 11 10 9 7 7 5 9 9 9 14 5 2 9 4 7 7 8 11 13 15 17 16 15 14 15 14 14 17 20
25 26 26 27 29 30 31 31 29 27 25 24 23 23 21 18 15 12 11 10 9 6 8 9 8 9 8 6 4 2 11 4 6 8 11 14 13 15 14 15 14 12 13 18 23
23 23 25 26 28 28 30 33 33 31 30 28 26 26 24 20 18 15 14 11 12 10 9 10 10 10 11 5 2 10 6 5 4 6 9 11 11 12 12 13 13 13 10 14 19
23 23 23 24 26 28 29 30 33 35 34 32 30 29 29 22 19 17 16 13 15 14 11 8 12 9 11 12 6 4 8 3 11 4 10 6 7 6 11 12 11 11 12 10 16
24 24 23 23 23 27 29 30 31 33 36 34 32 32 35 27 24 19 17 16 17 16 14 13 13 12 8 11 1 6 2 2 11 13 6 4 2 8 10 12 13 13 11 11 12
26 25 25 25 25 24 27 30 31 32 34 36 34 30 34 31 29 23 20 18 17 16 16 15 16 11 2 3 7 7 6 3 3 9 5 3 8 12 9 12 11 15 14 15 19
26 26 26 26 27 28 26 28 31 33 33 37 35 36 28 29 27 27 23 21 20 19 18 17 16 6 10 15 12 10 6 5 7 8 1 3 8 4 10 8 10 15 16 17 17
28 28 28 28 28 29 30 30 29 31 33 34 37 36 27 26 29 27 24 22 22 19 17 18 16 14 19 19 16 8 3 6 10 5 7 9 3 7 13 6 11 12 19 16 19
28 29 29 29 29 30 31 32 31 31 33 34 36 36 31 29 28 29 25 22 23 21 20 20 17 15 18 13 7 2 2 9 4 1 1 4 8 14 11 15 13 13 17 15 13
28 29 30 29 28 29 31 32 32 31 32 34 34 36 32 29 29 28 25 24 24 23 21 21 17 25 15 10 10 11 12 9 5 1 13 9 5 5 15 18 6 8 12 11 10
23 24 25 26 26 26 28 31 32 31 29 36 38 35 34 29 29 29 25 28 25 24 25 25 26 22 18 11 14 8 11 9 7 3 6 10 5 20 17 17 9 12 15 13 13
19 19 20 20 21 23 25 28 32 32 28 37 35 33 34 31 28 27 28 28 27 26 27 24 22 23 20 14 21 11 8 6 3 3 3 11 6 17 16 9 14 11 14 13 14
18 18 19 20 21 22 24 27 30 33 35 36 33 33 32 31 28 28 27 28 29 28 27 27 27 27 23 21 14 13 8 6 8 10 13 7 5 24 28 14 12 8 8 8 9
18 19 19 20 21 22 25 28 34 34 18 35 31 32 32 30 30 27 26 26 27 26 19 26 29 27 25 20 12 8 9 14 15 9 10 10 10 23 10 11 12 13 11 9 9
18 18 20 21 22 23 25 29 31 14 21 29 32 33 32 32 30 28 25 25 25 26 22 23 24 19 21 15 18 12 9 12 13 11 13 12 19 18 18 11 14 12 13 15 13
19 19 19 21 22 24 26 29 21 35 41 35 31 32 32 32 30 28 26 24 25 28 25 17 25 23 22 26 23 18 9 10 4 9 13 16 15 24 30 16 13 12 11 12 11
19 19 19 20 22 24 26 30 32 40 35 35 28 24 28 27 31 27 25 25 27 25 29 20 21 21 25 25 18 16 14 14 9 9 11 9 19 24 7 13 18 17 15 16 16
19 20 21 21 22 23 27 32 31 30 35 35 41 34 28 26 28 25 23 24 25 26 31 22 23 20 19 17 15 16 13 12 9 17 18 12 23 17 13 16 25 25 22 22 22
19 19 21 22 21 23 25 33 33 35 37 37 34 31 34 25 25 27 23 24 24 27 30 30 22 16 22 17 23 20 19 15 23 7 15 14 23 26 21 26 28 35 32 24 25
19 20 21 21 23 27 27 32 34 33 33 34 36 33 31 30 27 27 22 24 25 28 31 36 19 14 20 19 16 18 20 16 9 10 11 20 5 15 20 24 28 30 30 28 30
20 22 22 20 21 26 31 27 30 30 28 31 33 33 32 28 24 24 25 26 29 33 39 42 22 18 25 17 28 32 13 13 10 12 15 12 15 27 25 29 25 25 25 27 30
22 22 22 23 25 29 33 37 34 30 28 26 27 28 28 22 23 20 23 26 31 38 41 39 16 19 10 10 9 7 13 12 11 11 15 14 19 22 21 23 21 21 23 25 26
21 23 23 23 23 27 29 28 27 28 26 25 21 23 27 22 17 15 18 23 36 40 40 30 15 20 23 15 13 12 15 14 15 18 14 16 22 25 22 22 22 21 22 23 25
Wind_Direction
217 214 214 215 212 212 214 214 212 211 211 211 209 201 184 177 78 45 57 66 82 69 57 53 57 44 44 73 86 73 97 76 59 52 58 60 48 49 59 62 55 48 43 49 59
222 222 221 219 217 217 215 215 216 215 213 218 218 215 197 201 166 76 49 73 80 75 68 60 63 55 37 56 86 84 130 106 84 65 78 73 64 61 61 63 57 46 52 61 57
226 226 225 224 224 221 219 221 218 218 217 219 223 221 209 208 203 200 136 93 87 80 76 74 70 70 34 75 83 105 88 66 94 95 92 79 73 61 60 62 65 70 65 65 72
231 230 227 227 226 225 225 222 223 223 222 221 224 225 219 208 213 220 200 140 119 104 94 88 90 83 90 265 76 345 97 99 101 103 92 86 77 71 62 62 65 61 58 56 57
232 232 232 230 228 227 227 226 225 224 224 225 228 228 227 214 215 224 216 181 152 145 109 115 113 112 148 108 48 94 93 85 101 107 104 84 76 71 62 56 56 60 61 60 66
235 234 233 232 231 229 227 227 227 226 226 226 229 232 230 227 218 229 227 207 173 177 143 139 139 131 103 145 156 139 100 121 84 109 96 82 69 69 56 48 50 48 56 65 67
239 238 237 235 233 232 231 229 228 228 228 230 230 233 234 230 226 227 236 223 199 185 177 160 164 163 137 356 107 90 40 30 137 126 83 77 55 51 47 39 33 52 51 60 64
239 241 240 238 235 233 231 229 230 228 229 231 232 232 236 233 231 222 234 229 218 194 183 181 170 169 124 173 54 74 119 217 310 178 104 36 88 10 41 43 35 26 45 51 51
238 241 241 240 238 234 230 229 228 229 228 229 231 231 234 232 236 226 228 227 227 205 188 189 174 167 147 90 274 41 215 228 317 323 174 13 11 314 22 32 31 24 15 25 31
240 241 242 242 240 236 232 228 226 226 225 224 227 230 231 232 235 235 230 230 228 220 199 194 172 140 120 128 236 209 216 268 250 289 306 212 272 337 12 7 17 7 18 11 22
245 246 246 244 242 239 234 230 225 224 223 222 223 229 231 233 233 232 230 227 227 223 206 201 180 170 199 219 203 192 199 270 253 237 75 186 277 346 314 350 339 348 13 12 5
250 251 251 250 246 242 237 232 229 227 225 223 220 225 227 229 231 233 226 228 229 226 212 203 208 194 222 217 219 198 247 242 273 230 117 284 235 235 286 314 317 322 353 2 360
250 251 251 252 248 243 237 232 229 225 222 221 219 221 223 226 227 227 222 221 224 220 214 196 219 230 236 206 200 193 218 246 259 306 188 292 294 251 286 287 295 308 322 351 349
249 249 251 252 248 241 235 229 225 222 222 221 220 219 219 224 226 227 219 218 220 216 209 203 205 227 221 181 217 247 208 228 221 49 293 320 266 232 275 278 269 347 318 334 329
243 244 246 247 244 239 233 225 220 216 219 223 216 214 215 222 222 225 215 216 213 212 202 211 192 234 212 208 205 250 201 213 234 207 290 270 175 260 289 277 265 321 325 319 302
241 240 242 242 239 235 230 221 214 211 208 222 215 212 214 217 223 223 218 218 212 209 208 202 198 228 209 213 222 202 214 231 308 342 250 237 207 233 170 325 281 326 322 306 285
241 242 241 241 237 230 224 216 210 207 215 224 215 212 214 218 220 220 220 221 215 214 212 204 207 219 197 218 231 209 191 287 259 248 246 269 259 245 254 272 303 331 351 8 318
246 243 243 242 237 227 218 211 207 202 222 219 211 210 213 214 218 218 218 219 216 213 210 208 199 220 216 191 215 225 202 238 247 249 275 235 250 248 276 273 276 289 298 312 327
244 243 243 238 231 224 215 210 203 202 206 211 207 209 209 213 214 216 217 218 217 212 192 214 200 227 210 221 203 231 232 213 240 265 248 275 259 301 286 280 298 288 289 297 305
241 240 240 229 223 220 214 205 187 199 204 202 201 208 208 212 209 210 216 217 219 212 188 212 205 222 206 214 211 219 204 221 246 242 234 247 238 272 271 283 289 282 285 296 291
239 239 233 225 221 219 212 204 199 211 209 200 189 212 203 208 209 213 217 215 216 208 176 192 193 201 211 222 206 214 226 214 240 213 240 266 224 252 14 300 294 290 289 290 289
235 233 226 222 220 217 210 204 208 207 202 201 200 193 198 203 209 204 202 216 215 202 194 169 186 206 232 212 209 228 230 214 258 252 231 254 280 289 284 275 291 292 289 289 290
231 225 223 220 217 215 208 204 205 204 198 200 201 203 202 198 210 208 214 212 209 201 193 164 175 193 191 213 218 192 205 193 241 267 316 325 268 273 294 293 289 285 283 280 282
225 221 221 219 216 206 202 208 205 201 202 203 201 199 203 202 211 205 207 210 206 196 183 165 163 201 208 203 212 191 197 210 215 258 289 263 226 264 279 286 286 285 284 282 276
219 216 216 215 214 206 200 202 203 200 201 204 205 204 204 205 206 208 201 209 201 188 182 159 174 228 219 196 200 205 180 221 218 234 233 259 290 278 291 294 295 293 289 284 280
218 213 211 210 209 206 204 198 195 196 199 203 209 206 206 192 203 206 204 211 198 193 183 168 190 208 200 210 204 235 230 222 247 254 266 264 275 279 288 291 295 294 294 293 292
210 210 210 209 209 206 203 201 193 196 198 201 193 191 196 186 201 204 197 210 196 189 178 175 208 206 211 224 225 233 254 247 235 274 264 281 285 295 298 300 296 299 298 295 291
Height
5889 5892 5894 5896 5898 5900 5902 5905 5908 5910 5912 5913 5916 5917 5919 5919 5920 5920 5920 5921 5921 5921 5921 5920 5919 5919 5919 5921 5922 5924 5929 5926 5924 5916 5912 5911 5909 5907 5905 5903 5902 5901 5899 5898 5896
5886 5888 5891 5893 5895 5898 5901 5903 5905 5908 5910 5912 5914 5915 5918 5919 5920 5921 5922 5921 5922 5922 5922 5921 5921 5922 5926 5925 5926 5932 5928 5925 5926 5921 5916 5914 5913 5911 5909 5906 5905 5904 5902 5900 5898
5882 5885 5887 5890 5893 5896 5898 5901 5903 5905 5908 5910 5911 5914 5917 5918 5919 5920 5921 5922 5923 5922 5923 5923 5923 5925 5932 5932 5930 5931 5928 5928 5923 5921 5919 5917 5916 5914 5913 5910 5908 5907 5905 5902 5899
5877 5880 5883 5886 5889 5892 5895 5898 5901 5903 5905 5908 5910 5913 5915 5917 5920 5920 5921 5923 5923 5924 5924 5923 5925 5932 5938 5935 5930 5929 5927 5926 5924 5922 5922 5920 5919 5918 5917 5914 5912 5910 5907 5905 5901
5873 5876 5879 5882 5885 5888 5892 5895 5898 5901 5903 5905 5907 5909 5912 5916 5918 5918 5921 5922 5924 5924 5924 5924 5926 5929 5937 5935 5932 5935 5929 5929 5926 5925 5925 5923 5923 5921 5919 5917 5915 5913 5911 5908 5904
5868 5871 5874 5877 5880 5884 5887 5891 5894 5897 5899 5902 5904 5907 5910 5914 5916 5917 5919 5921 5923 5923 5924 5924 5926 5928 5931 5934 5936 5931 5931 5933 5930 5927 5927 5926 5926 5924 5922 5919 5917 5916 5914 5910 5908
5862 5865 5868 5872 5874 5878 5881 5885 5889 5892 5895 5898 5901 5903 5906 5911 5914 5916 5916 5919 5922 5923 5923 5924 5925 5927 5931 5935 5932 5933 5936 5935 5933 5930 5930 5927 5929 5927 5924 5922 5920 5919 5916 5914 5913
5858 5860 5863 5866 5869 5872 5875 5879 5883 5887 5891 5894 5897 5899 5901 5907 5910 5913 5914 5918 5920 5922 5922 5923 5926 5929 5929 5932 5934 5939 5940 5938 5935 5933 5932 5928 5929 5930 5926 5924 5922 5920 5919 5919 5917
5853 5856 5858 5861 5864 5867 5870 5873 5877 5880 5884 5889 5892 5895 5896 5903 5906 5910 5912 5915 5917 5920 5922 5923 5926 5928 5933 5934 5941 5941 5937 5943 5938 5934 5936 5932 5930 5930 5927 5925 5923 5921 5921 5921 5921
5848 5850 5853 5856 5859 5862 5865 5868 5871 5875 5879 5883 5887 5892 5893 5898 5900 5906 5910 5912 5914 5917 5921 5923 5925 5929 5935 5941 5941 5943 5944 5942 5942 5937 5934 5935 5934 5931 5928 5925 5923 5922 5922 5922 5923
5842 5845 5847 5850 5853 5856 5860 5863 5867 5870 5872 5877 5882 5884 5891 5894 5898 5900 5905 5908 5910 5913 5918 5921 5924 5933 5939 5940 5936 5939 5942 5942 5939 5936 5935 5937 5937 5930 5930 5927 5923 5921 5924 5923 5922
5836 5838 5841 5843 5846 5849 5853 5857 5861 5865 5867 5871 5876 5879 5886 5889 5892 5896 5902 5905 5907 5911 5915 5920 5923 5932 5930 5931 5934 5939 5942 5941 5935 5934 5935 5936 5937 5937 5931 5929 5926 5923 5923 5925 5923
5829 5831 5834 5836 5839 5842 5846 5850 5854 5858 5862 5865 5870 5875 5881 5884 5887 5891 5897 5900 5904 5908 5911 5918 5926 5926 5927 5932 5934 5938 5942 5939 5936 5934 5936 5936 5935 5932 5931 5929 5927 5926 5923 5923 5925
5822 5825 5827 5830 5834 5835 5838 5843 5848 5853 5857 5861 5865 5870 5876 5879 5883 5887 5892 5897 5900 5904 5909 5915 5925 5923 5926 5931 5935 5936 5936 5936 5936 5937 5935 5936 5937 5933 5928 5926 5926 5925 5924 5924 5925
5816 5818 5820 5823 5826 5829 5833 5837 5842 5848 5854 5855 5857 5864 5870 5876 5879 5882 5888 5891 5895 5901 5906 5914 5918 5919 5925 5930 5930 5931 5931 5934 5934 5935 5939 5937 5938 5931 5927 5921 5923 5923 5923 5924 5923
5811 5813 5815 5818 5820 5823 5827 5831 5837 5844 5848 5848 5854 5861 5866 5870 5875 5879 5883 5887 5892 5896 5900 5910 5915 5917 5922 5926 5925 5927 5930 5931 5932 5934 5937 5937 5936 5922 5909 5916 5922 5922 5921 5921 5921
5806 5808 5810 5812 5815 5818 5821 5826 5834 5838 5841 5844 5852 5856 5862 5866 5871 5874 5880 5883 5888 5893 5897 5902 5912 5914 5918 5918 5922 5925 5930 5934 5935 5933 5935 5930 5934 5928 5924 5923 5921 5922 5921 5920 5920
5801 5803 5804 5806 5809 5812 5816 5822 5826 5835 5838 5839 5847 5852 5857 5862 5866 5871 5875 5879 5884 5890 5897 5899 5906 5907 5910 5916 5925 5924 5930 5931 5928 5933 5934 5932 5933 5920 5917 5920 5922 5921 5920 5919 5918
5796 5798 5799 5801 5803 5807 5812 5816 5823 5832 5834 5836 5843 5848 5853 5858 5863 5867 5872 5877 5880 5885 5893 5900 5907 5907 5911 5915 5918 5921 5925 5929 5929 5932 5931 5928 5924 5914 5915 5917 5919 5918 5917 5916 5915
5791 5793 5794 5796 5798 5802 5806 5811 5819 5819 5821 5831 5839 5845 5850 5855 5860 5864 5868 5873 5876 5881 5890 5901 5904 5907 5909 5911 5914 5917 5919 5927 5927 5928 5929 5928 5926 5919 5912 5912 5914 5915 5915 5914 5913
5785 5787 5788 5790 5793 5796 5801 5806 5809 5814 5822 5830 5835 5842 5847 5852 5856 5861 5865 5870 5872 5877 5884 5896 5903 5906 5908 5905 5911 5915 5916 5920 5924 5922 5925 5923 5914 5911 5893 5909 5911 5911 5911 5910 5909
5780 5782 5783 5786 5789 5791 5795 5800 5804 5809 5818 5824 5827 5832 5842 5851 5852 5858 5863 5866 5869 5873 5880 5890 5900 5898 5902 5904 5909 5909 5917 5919 5922 5920 5920 5914 5907 5910 5911 5910 5907 5908 5908 5906 5905
5774 5777 5778 5781 5784 5787 5791 5795 5799 5806 5812 5819 5826 5832 5837 5844 5850 5853 5858 5861 5865 5870 5876 5886 5895 5899 5902 5904 5905 5907 5912 5917 5913 5911 5910 5913 5909 5905 5906 5905 5906 5903 5902 5903 5901
5770 5772 5775 5777 5779 5782 5787 5792 5797 5804 5811 5816 5822 5827 5833 5839 5844 5849 5854 5858 5862 5867 5873 5883 5894 5898 5898 5899 5903 5906 5907 5910 5913 5916 5912 5905 5880 5901 5902 5903 5901 5898 5895 5896 5895
5765 5768 5769 5774 5777 5779 5783 5791 5796 5802 5809 5813 5819 5825 5831 5836 5841 5846 5851 5854 5858 5863 5869 5877 5888 5891 5891 5893 5896 5894 5902 5906 5907 5907 5907 5906 5903 5897 5899 5895 5895 5892 5889 5888 5885
5760 5763 5766 5769 5772 5776 5780 5784 5793 5800 5806 5811 5816 5822 5828 5834 5841 5844 5848 5851 5855 5859 5866 5876 5885 5888 5891 5891 5897 5899 5900 5900 5900 5900 5900 5900 5898 5895 5895 5892 5889 5887 5884 5881 5879
5756 5759 5762 5766 5770 5775 5780 5788 5793 5798 5804 5808 5813 5819 5824 5832 5840 5844 5848 5849 5853 5857 5865 5876 5882 5885 5890 5892 5894 5897 5897 5895 5895 5894 5895 5895 5892 5889 5888 5886 5883 5881 5879 5876 5874